Location: Daytona Beach
(29.2106°N, 81.0231°W)
Time: 20:45:08
(UTC-04:00)

ISS - Pass Details

Date: 25 June 2021
Orbit: 419 x 421 km, 51.6° (Epoch: 30 July)

Event Time Altitude Azimuth Distance (km) Brightness Sun altitude
Exits shadow 04:25:43 27° 117° (ESE) 828 -2.2 -22.1°
Drops below altitude 10° 04:28:18 10° 67° (ENE) 1,493 0.0 -21.7°
Sets 04:30:35 0° 56° (NE) 2,359 1.5 -21.3°
